TimeEDT,TemperatureF,Dew PointF,Humidity,Sea Level PressureIn,VisibilityMPH,Wind Direction,Wind SpeedMPH,Gust SpeedMPH,PrecipitationIn,Events,Conditions,WindDirDegrees,DateUTC
12:53 AM,48.0,46.0,93,29.48,2.5,SSW,4.6,-,N/A,,Overcast,200,2014-04-23 04:53:00
1:04 AM,48.0,46.0,93,29.49,1.0,SSW,3.5,-,N/A,,Overcast,200,2014-04-23 05:04:00
1:12 AM,46.9,46.0,97,29.49,0.5,South,3.5,-,N/A,Fog,Fog,190,2014-04-23 05:12:00
1:53 AM,46.9,46.0,97,29.48,0.2,Calm,Calm,-,N/A,Fog,Fog,0,2014-04-23 05:53:00
2:53 AM,46.9,46.0,97,29.46,0.2,Calm,Calm,-,N/A,Fog,Fog,0,2014-04-23 06:53:00
3:53 AM,46.0,45.0,96,29.45,0.2,Calm,Calm,-,N/A,Fog,Fog,0,2014-04-23 07:53:00
4:21 AM,46.0,45.0,96,29.45,0.5,Calm,Calm,-,N/A,Fog,Fog,0,2014-04-23 08:21:00
4:53 AM,44.1,43.0,96,29.44,0.5,Calm,Calm,-,N/A,Fog,Fog,0,2014-04-23 08:53:00
5:23 AM,45.0,44.1,97,29.43,1.0,Calm,Calm,-,N/A,,Partly Cloudy,0,2014-04-23 09:23:00
5:37 AM,45.0,44.1,97,29.44,3.0,Calm,Calm,-,N/A,,Partly Cloudy,0,2014-04-23 09:37:00
5:45 AM,46.0,44.1,93,29.43,2.0,Calm,Calm,-,N/A,,Clear,0,2014-04-23 09:45:00
5:53 AM,44.1,42.1,93,29.43,3.0,Calm,Calm,-,N/A,,Clear,0,2014-04-23 09:53:00
6:00 AM,45.0,43.0,93,29.44,1.2,Calm,Calm,-,N/A,,Partly Cloudy,0,2014-04-23 10:00:00
6:24 AM,46.0,45.0,96,29.44,3.0,Calm,Calm,-,N/A,,Overcast,0,2014-04-23 10:24:00
6:53 AM,46.9,46.0,97,29.44,4.0,Calm,Calm,-,0.00,Rain,Light Rain,0,2014-04-23 10:53:00
7:31 AM,48.0,46.9,96,29.47,1.8,SW,4.6,-,0.05,Rain,Heavy Rain,220,2014-04-23 11:31:00
7:53 AM,48.0,46.9,96,29.46,1.5,Calm,Calm,-,0.14,Rain,Rain,0,2014-04-23 11:53:00
8:02 AM,48.0,48.0,100,29.46,3.0,Calm,Calm,-,0.00,Rain,Light Rain,0,2014-04-23 12:02:00
8:53 AM,51.1,48.0,89,29.44,10.0,NNW,5.8,-,0.00,,Overcast,330,2014-04-23 12:53:00
9:53 AM,50.0,46.0,86,29.46,10.0,West,9.2,-,N/A,,Overcast,270,2014-04-23 13:53:00
10:31 AM,50.0,46.0,86,29.42,10.0,NW,10.4,-,0.00,,Overcast,320,2014-04-23 14:31:00
10:40 AM,48.9,46.0,90,29.44,4.0,WNW,10.4,-,0.05,Rain,Light Rain,300,2014-04-23 14:40:00
10:43 AM,48.9,46.0,90,29.43,1.8,NW,11.5,-,0.13,Rain,Heavy Rain,310,2014-04-23 14:43:00
10:53 AM,48.0,46.0,93,29.43,1.2,NNW,9.2,-,0.22,Rain-Thunderstorm,Rain,330,2014-04-23 14:53:00
10:58 AM,48.0,46.0,93,29.43,3.0,NW,10.4,-,0.01,Rain-Thunderstorm,Light Rain,320,2014-04-23 14:58:00
11:08 AM,48.9,46.9,93,29.43,9.0,NW,11.5,-,0.01,Rain-Thunderstorm,Light Rain,310,2014-04-23 15:08:00
11:12 AM,48.9,46.9,93,29.43,10.0,NW,12.7,-,0.01,,Overcast,310,2014-04-23 15:12:00
11:23 AM,50.0,46.0,86,29.43,10.0,WNW,12.7,-,0.01,,Overcast,300,2014-04-23 15:23:00
11:53 AM,48.9,44.1,83,29.44,10.0,WNW,11.5,20.7,0.01,,Overcast,300,2014-04-23 15:53:00
12:09 PM,48.0,44.1,86,29.45,10.0,West,11.5,-,N/A,,Overcast,280,2014-04-23 16:09:00
12:30 PM,48.0,44.1,86,29.45,4.0,NW,16.1,23.0,0.02,Rain,Rain,310,2014-04-23 16:30:00
12:39 PM,48.0,45.0,89,29.45,1.8,WNW,13.8,23.0,0.07,Rain,Heavy Rain,300,2014-04-23 16:39:00
12:46 PM,48.0,45.0,89,29.45,3.0,WNW,12.7,23.0,0.08,Rain,Rain,300,2014-04-23 16:46:00
1:53 PM,50.0,45.0,83,29.44,10.0,NW,15.0,25.3,0.05,,Overcast,310,2014-04-23 17:53:00
2:53 PM,51.1,43.0,74,29.44,10.0,NW,12.7,-,0.00,,Overcast,310,2014-04-23 18:53:00
3:12 PM,51.1,43.0,74,29.44,10.0,WNW,13.8,23.0,N/A,,Overcast,300,2014-04-23 19:12:00
3:46 PM,50.0,41.0,71,29.44,10.0,NW,15.0,27.6,N/A,,Overcast,320,2014-04-23 19:46:00
4:53 PM,52.0,39.0,61,29.46,10.0,NW,16.1,27.6,N/A,,Overcast,320,2014-04-23 20:53:00
5:53 PM,53.1,36.0,52,29.48,10.0,NNW,20.7,33.4,N/A,,Overcast,330,2014-04-23 21:53:00
6:53 PM,52.0,34.0,50,29.50,10.0,NNW,16.1,33.4,N/A,,Mostly Cloudy,330,2014-04-23 22:53:00
7:53 PM,51.1,34.0,52,29.54,10.0,NNW,13.8,29.9,N/A,,Overcast,330,2014-04-23 23:53:00
8:53 PM,50.0,35.1,57,29.57,10.0,NW,16.1,24.2,N/A,,Overcast,310,2014-04-24 00:53:00
9:53 PM,48.9,33.1,54,29.59,10.0,NW,15.0,28.8,N/A,,Overcast,320,2014-04-24 01:53:00
10:53 PM,48.0,32.0,54,29.60,10.0,NW,19.6,31.1,N/A,,Overcast,320,2014-04-24 02:53:00
11:53 PM,46.9,32.0,56,29.62,10.0,NW,19.6,27.6,N/A,,Overcast,310,2014-04-24 03:53:00